When you browse on this site, cookies collect data to enhance your experience and personalize the content and advertising you see.
Visit our Privacy Policy to learn more. By continuing to use the site, you agree to this use of cookies and data.

Hourly Weather Pogrebische

Today, 9 July, Thursday

Time Temperature Precipitation Wind Pressure Humidity
00:00 +13°C° 0 mm 2 mps 742 mmHg 86%
01:00 +13°C° 0 mm 2 mps 742 mmHg 87%
02:00 +12°C° 0 mm 2 mps 742 mmHg 87%
03:00 +12°C° 0 mm 2 mps 742 mmHg 87%
04:00 +12°C° 0 mm 2 mps 742 mmHg 88%
05:00 +12°C° 0 mm 2 mps 742 mmHg 88%
06:00 +14°C° 0 mm 2 mps 743 mmHg 82%
07:00 +16°C° 0 mm 2 mps 743 mmHg 76%
08:00 +18°C° 0 mm 2 mps 744 mmHg 68%
09:00 +18°C° 0 mm 2 mps 744 mmHg 70%
10:00 +18°C° 0 mm 3 mps 744 mmHg 71%
11:00 +18°C° 0 mm 3 mps 744 mmHg 73%
12:00 +18°C° 0 mm 3 mps 744 mmHg 72%
13:00 +18°C° 0 mm 3 mps 744 mmHg 70%
14:00 +18°C° 0 mm 2 mps 744 mmHg 69%
15:00 +19°C° 0 mm 3 mps 744 mmHg 68%
16:00 +20°C° 0 mm 3 mps 744 mmHg 68%
17:00 +20°C° 0 mm 3 mps 744 mmHg 68%
18:00 +19°C° 0 mm 2 mps 744 mmHg 74%
19:00 +19°C° 0 mm 1 mps 744 mmHg 80%
20:00 +16°C° 0 mm 1 mps 744 mmHg 85%
21:00 +16°C° 0 mm 1 mps 744 mmHg 86%
22:00 +15°C° 0 mm 1 mps 744 mmHg 87%
23:00 +14°C° 0 mm 1 mps 744 mmHg 88%

Tomorrow, 10 July, Friday

Time Temperature Precipitation Wind Pressure Humidity
00:00 +14°C° 0 mm 1 mps 744 mmHg 89%
01:00 +14°C° 0 mm 1 mps 744 mmHg 89%
02:00 +14°C° 0 mm 1 mps 744 mmHg 90%
03:00 +14°C° 0 mm 1 mps 744 mmHg 91%
04:00 +14°C° 0 mm 1 mps 744 mmHg 91%
05:00 +14°C° 0 mm 2 mps 744 mmHg 92%
06:00 +16°C° 0 mm 2 mps 745 mmHg 86%
07:00 +18°C° 0 mm 2 mps 745 mmHg 81%
08:00 +20°C° 0 mm 3 mps 745 mmHg 75%
09:00 +21°C° 0 mm 3 mps 745 mmHg 70%
10:00 +24°C° 0 mm 3 mps 745 mmHg 65%
11:00 +25°C° 0 mm 3 mps 745 mmHg 60%
12:00 +26°C° 0 mm 3 mps 745 mmHg 59%
13:00 +26°C° 0 mm 4 mps 744 mmHg 58%
14:00 +27°C° 0 mm 4 mps 744 mmHg 58%
15:00 +27°C° 0 mm 3 mps 744 mmHg 59%
16:00 +27°C° 0 mm 3 mps 744 mmHg 60%
17:00 +27°C° 0 mm 3 mps 744 mmHg 61%
18:00 +26°C° 0 mm 3 mps 744 mmHg 67%
19:00 +24°C° 0 mm 3 mps 744 mmHg 73%
20:00 +21°C° 0 mm 3 mps 744 mmHg 80%
21:00 +21°C° 0 mm 3 mps 744 mmHg 82%
22:00 +20°C° 0 mm 3 mps 744 mmHg 84%
23:00 +19°C° 0 mm 3 mps 744 mmHg 86%

Day after tomorrow, 11 July, Saturday

Time Temperature Precipitation Wind Pressure Humidity
00:00 +19°C° 0 mm 3 mps 744 mmHg 85%
01:00 +18°C° 0 mm 3 mps 744 mmHg 85%
02:00 +18°C° 0 mm 3 mps 744 mmHg 85%
03:00 +18°C° 0 mm 3 mps 744 mmHg 84%
04:00 +17°C° 0 mm 3 mps 744 mmHg 83%
05:00 +17°C° 0 mm 3 mps 744 mmHg 82%
06:00 +19°C° 0 mm 3 mps 744 mmHg 78%
07:00 +21°C° 0 mm 3 mps 744 mmHg 74%
08:00 +22°C° 0 mm 4 mps 744 mmHg 70%
09:00 +25°C° 0 mm 4 mps 744 mmHg 66%
10:00 +26°C° 0 mm 4 mps 744 mmHg 63%
11:00 +27°C° 0 mm 4 mps 744 mmHg 59%
12:00 +28°C° 0 mm 4 mps 744 mmHg 58%
13:00 +28°C° 0 mm 4 mps 744 mmHg 57%
14:00 +29°C° 0 mm 4 mps 744 mmHg 57%
15:00 +28°C° 0 mm 4 mps 744 mmHg 58%
16:00 +28°C° 0 mm 4 mps 743 mmHg 59%
17:00 +28°C° 0 mm 3 mps 743 mmHg 61%
18:00 +26°C° 0 mm 3 mps 743 mmHg 65%
19:00 +25°C° 0 mm 2 mps 743 mmHg 70%
20:00 +23°C° 0 mm 2 mps 742 mmHg 74%
21:00 +21°C° 0 mm 2 mps 742 mmHg 76%
22:00 +21°C° 0 mm 2 mps 742 mmHg 77%
23:00 +20°C° 0 mm 2 mps 742 mmHg 78%

12 July, Sunday

Time Temperature Precipitation Wind Pressure Humidity
00:00 +19°C° 0 mm 2 mps 742 mmHg 80%
01:00 +19°C° 0 mm 2 mps 742 mmHg 81%
02:00 +18°C° 0 mm 2 mps 742 mmHg 83%
03:00 +18°C° 0 mm 2 mps 742 mmHg 82%
04:00 +18°C° 0 mm 2 mps 741 mmHg 81%
05:00 +18°C° 0 mm 2 mps 741 mmHg 81%
06:00 +19°C° 0 mm 2 mps 741 mmHg 75%
07:00 +21°C° 0 mm 2 mps 741 mmHg 70%
08:00 +24°C° 0 mm 2 mps 742 mmHg 64%
09:00 +25°C° 0 mm 2 mps 741 mmHg 61%
10:00 +26°C° 0 mm 2 mps 741 mmHg 57%
11:00 +27°C° 0 mm 2 mps 741 mmHg 54%
12:00 +27°C° 0 mm 2 mps 741 mmHg 54%
13:00 +27°C° 0 mm 2 mps 741 mmHg 54%
14:00 +28°C° 0 mm 2 mps 740 mmHg 54%
15:00 +28°C° 0 mm 2 mps 740 mmHg 54%
16:00 +28°C° 0 mm 2 mps 740 mmHg 54%
17:00 +28°C° 0 mm 2 mps 739 mmHg 54%
18:00 +26°C° 0 mm 1 mps 739 mmHg 59%
19:00 +24°C° 0 mm 1 mps 739 mmHg 63%
20:00 +23°C° 0 mm 1 mps 739 mmHg 68%
21:00 +22°C° 0 mm 1 mps 739 mmHg 70%
22:00 +21°C° 0 mm 1 mps 738 mmHg 71%
23:00 +19°C° 0 mm 0 mps 738 mmHg 72%

13 July, Monday

Time Temperature Precipitation Wind Pressure Humidity
00:00 +21°C° 0 mm 1 mps 738 mmHg 73%
01:00 +20°C° 0 mm 1 mps 738 mmHg 74%
02:00 +20°C° 0 mm 1 mps 738 mmHg 74%
03:00 +19°C° 0 mm 3 mps 738 mmHg 80%
04:00 +18°C° 0 mm 4 mps 738 mmHg 86%
05:00 +16°C° 0 mm 5 mps 738 mmHg 92%
06:00 +16°C° 0.5 mm 5 mps 738 mmHg 92%
07:00 +15°C° 0.5 mm 5 mps 738 mmHg 92%
08:00 +15°C° 0.5 mm 5 mps 738 mmHg 92%
09:00 +14°C° 1.6 mm 5 mps 739 mmHg 92%
10:00 +14°C° 1.6 mm 5 mps 739 mmHg 92%
11:00 +14°C° 1.6 mm 5 mps 739 mmHg 92%
12:00 +14°C° 0.2 mm 5 mps 739 mmHg 89%
13:00 +15°C° 0.2 mm 6 mps 739 mmHg 86%
14:00 +16°C° 0.2 mm 6 mps 739 mmHg 83%
15:00 +16°C° 0 mm 6 mps 739 mmHg 82%
16:00 +16°C° 0 mm 6 mps 739 mmHg 80%
17:00 +16°C° 0 mm 7 mps 738 mmHg 79%
18:00 +15°C° 0 mm 6 mps 739 mmHg 79%
19:00 +14°C° 0 mm 6 mps 739 mmHg 80%
20:00 +13°C° 0 mm 5 mps 739 mmHg 80%
21:00 +13°C° 0 mm 5 mps 739 mmHg 82%
22:00 +12°C° 0 mm 5 mps 738 mmHg 84%
23:00 +11°C° 0 mm 4 mps 738 mmHg 86%

14 July, Tuesday

Time Temperature Precipitation Wind Pressure Humidity
00:00 +11°C° 0 mm 4 mps 738 mmHg 88%
01:00 +11°C° 0 mm 4 mps 738 mmHg 89%
02:00 +10°C° 0 mm 4 mps 738 mmHg 90%
03:00 +10°C° 0 mm 4 mps 738 mmHg 91%
04:00 +10°C° 0 mm 4 mps 737 mmHg 92%
05:00 +8°C° 0 mm 4 mps 737 mmHg 92%
06:00 +10°C° 0 mm 5 mps 737 mmHg 89%
07:00 +12°C° 0 mm 5 mps 737 mmHg 86%
08:00 +13°C° 0 mm 5 mps 737 mmHg 82%
09:00 +14°C° 0.1 mm 6 mps 737 mmHg 81%
10:00 +14°C° 0.1 mm 6 mps 737 mmHg 79%
11:00 +15°C° 0.1 mm 6 mps 737 mmHg 77%
12:00 +15°C° 0.1 mm 7 mps 737 mmHg 78%
13:00 +15°C° 0.1 mm 7 mps 737 mmHg 80%
14:00 +14°C° 0.1 mm 7 mps 737 mmHg 81%
15:00 +14°C° 0.1 mm 7 mps 737 mmHg 83%
16:00 +14°C° 0.1 mm 7 mps 736 mmHg 85%
17:00 +14°C° 0.1 mm 7 mps 736 mmHg 87%
18:00 +12°C° 0.1 mm 7 mps 736 mmHg 87%
19:00 +12°C° 0.1 mm 7 mps 736 mmHg 88%
20:00 +12°C° 0.1 mm 7 mps 736 mmHg 88%
21:00 +12°C° 0.1 mm 7 mps 736 mmHg 89%
22:00 +12°C° 0.1 mm 7 mps 736 mmHg 90%
23:00 +12°C° 0.1 mm 7 mps 736 mmHg 91%
Show more